User: anonymous   Login
Location: Newark
(44.6028°N, 124.0883°W)
Time: 20:07:12
(UTC+00:00)
Language:

EO-79 - Orbit

View from above orbital plane
View from above orbital plane
View from above satellite
View from above satellite

Ground track
Ground track

The orbit data is extracted from the following two-line orbital elements,

1 40025U 14033R   19339.45053448  .00000218  00000-0  29146-4 0  9997
2 40025  97.9088 258.8595 0011450 216.1705 143.8738 14.89032359296587
Epoch (UTC): 05 December 2019 10:48:46
Eccentricity: 0.0011450
inclination: 97.9088°
perigee height: 593 km
apogee height: 609 km
right ascension of ascending node: 258.8595°
argument of perigee: 216.1705°
revolutions per day: 14.89032359
mean anomaly at epoch: 143.8738°
orbit number at epoch: 29658

The dashed part of the orbit path shows where the satellite is in the earth's shadow,  

DLR